| time (UTC) | temp F | wind direction | speed MPH | gust MPH | rain 1hr in | rain 24hr in | rain mn in | humidity % | barometer mb |
| 20260901014634 | 54 | 271 | 0.0 | 0.0 | 0.00 | 0.03 | 0.00 | 89 | 1019.7 |
| 20260901014411 | 55 | 271 | 0.0 | 0.0 | 0.00 | 0.02 | 0.01 | 88 | 1019.9 |
| 20260901013409 | 55 | 271 | 0.0 | 0.0 | 0.00 | 0.02 | 0.01 | 88 | 1019.8 |
| 20260901013035 | 55 | 271 | 0.0 | 0.0 | 0.00 | 0.03 | 0.00 | 87 | 1019.6 |
| 20260901012906 | 56 | 271 | 0.0 | 0.0 | 0.00 | 0.02 | 0.01 | 87 | 1019.8 |
| 20260901012402 | 56 | 271 | 0.0 | 0.0 | 0.00 | 0.02 | 0.01 | 88 | 1019.8 |
| 20260901011901 | 56 | 271 | 0.0 | 0.0 | 0.00 | 0.02 | 0.01 | 88 | 1019.8 |
| 20260901011621 | 56 | 271 | 0.0 | 0.0 | 0.00 | 0.03 | 0.00 | 87 | 1019.6 |
| 20260901011405 | 57 | 271 | 0.0 | 0.0 | 0.00 | 0.02 | 0.01 | 87 | 1019.7 |
| 20260901010402 | 57 | 271 | 0.0 | 0.0 | 0.00 | 0.03 | 0.01 | 86 | 1019.7 |
| 20260901010010 | 57 | 271 | 0.0 | 0.0 | 0.00 | 0.12 | 0.00 | 85 | 1019.5 |
| 20260901005903 | 58 | 271 | 0.0 | 0.0 | 0.00 | 0.05 | 0.01 | 85 | 1019.7 |
| 20260901005401 | 58 | 271 | 0.0 | 0.0 | 0.00 | 0.05 | 0.01 | 84 | 1019.7 |
| 20260901004604 | 58 | 271 | 0.0 | 0.0 | 0.00 | 0.12 | 0.00 | 80 | 1019.4 |
| 20260901004401 | 59 | 271 | 0.0 | 0.0 | 0.00 | 0.06 | 0.01 | 80 | 1019.6 |
| 20260901003902 | 60 | 271 | 0.0 | 0.0 | 0.00 | 0.06 | 0.01 | 81 | 1019.7 |
| 20260901003402 | 60 | 271 | 0.0 | 0.0 | 0.00 | 0.06 | 0.01 | 80 | 1019.7 |
| 20260901003002 | 60 | 271 | 0.0 | 0.0 | 0.00 | 0.12 | 0.00 | 80 | 1019.4 |
| 20260901002903 | 61 | 271 | 0.0 | 0.0 | 0.00 | 0.12 | 0.01 | 79 | 1019.6 |
| 20260901002401 | 61 | 271 | 0.0 | 0.0 | 0.00 | 0.12 | 0.01 | 77 | 1019.6 |
| 20260901001902 | 62 | 271 | 0.0 | 0.0 | 0.00 | 0.12 | 0.01 | 72 | 1019.6 |
| 20260901001612 | 61 | 271 | 0.0 | 0.0 | 0.00 | 0.12 | 0.00 | 75 | 1019.3 |
| 20260901001406 | 62 | 271 | 0.0 | 0.0 | 0.00 | 0.12 | 0.01 | 74 | 1019.5 |
| 20260901000902 | 62 | 271 | 0.0 | 0.0 | 0.00 | 0.12 | 0.01 | 71 | 1019.6 |
| 20260901000405 | 62 | 271 | 0.0 | 0.0 | 0.00 | 0.12 | 0.01 | 69 | 1019.5 |
| 20260831235901 | 62 | 271 | 0.0 | 0.0 | 0.00 | 0.12 | 0.01 | 70 | 1019.5 |
| 20260831235402 | 62 | 271 | 0.0 | 0.0 | 0.00 | 0.12 | 0.01 | 69 | 1019.5 |
| 20260831234901 | 62 | 271 | 0.0 | 0.0 | 0.00 | 0.12 | 0.01 | 71 | 1019.4 |
| 20260831234600 | 62 | 271 | 0.0 | 0.0 | 0.00 | 0.12 | 0.00 | 70 | 1019.2 |
| 20260831234400 | 62 | 271 | 0.0 | 0.0 | 0.00 | 0.12 | 0.01 | 70 | 1019.4 |
| 20260831233902 | 63 | 271 | 0.0 | 0.0 | 0.00 | 0.12 | 0.01 | 70 | 1019.4 |
| 20260831233402 | 63 | 271 | 0.0 | 0.0 | 0.00 | 0.12 | 0.01 | 72 | 1019.3 |
| 20260831233140 | 62 | 271 | 0.0 | 0.0 | 0.00 | 0.12 | 0.00 | 71 | 1019.2 |
| 20260831232902 | 63 | 271 | 0.0 | 0.0 | 0.00 | 0.12 | 0.01 | 72 | 1019.5 |
| 20260831232402 | 64 | 271 | 0.0 | 0.0 | 0.00 | 0.12 | 0.01 | 70 | 1019.4 |
| 20260831231905 | 64 | 271 | 0.0 | 0.0 | 0.00 | 0.12 | 0.01 | 69 | 1019.5 |
| 20260831231632 | 64 | 271 | 0.0 | 0.0 | 0.00 | 0.12 | 0.00 | 70 | 1019.3 |
| 20260831230403 | 65 | 271 | 0.0 | 0.0 | 0.00 | 0.12 | 0.01 | 66 | 1019.6 |
| 20260831230139 | 65 | 271 | 0.0 | 0.0 | 0.00 | 0.12 | 0.00 | 67 | 1019.4 |
| 20260831225901 | 66 | 271 | 0.0 | 0.0 | 0.00 | 0.12 | 0.01 | 69 | 1019.7 |
| 20260831224903 | 67 | 271 | 0.0 | 0.0 | 0.00 | 0.12 | 0.01 | 70 | 1019.7 |
| 20260831224528 | 67 | 271 | 0.0 | 0.0 | 0.00 | 0.12 | 0.00 | 70 | 1019.5 |
| 20260831224400 | 67 | 271 | 0.0 | 0.0 | 0.00 | 0.12 | 0.01 | 70 | 1019.7 |
| 20260831223854 | 68 | 271 | 0.0 | 0.0 | 0.00 | 0.12 | 0.01 | 67 | 1019.7 |
| 20260831223348 | 68 | 271 | 0.0 | 0.0 | 0.00 | 0.12 | 0.01 | 69 | 1019.6 |
| 20260831223121 | 68 | 271 | 0.0 | 0.0 | 0.00 | 0.12 | 0.00 | 68 | 1019.3 |
| 20260831222844 | 68 | 271 | 0.0 | 0.0 | 0.00 | 0.12 | 0.01 | 68 | 1019.6 |
| 20260831222348 | 69 | 271 | 0.0 | 2.0 | 0.00 | 0.12 | 0.01 | 70 | 1019.6 |
| 20260831221841 | 69 | 271 | 0.0 | 2.0 | 0.00 | 0.12 | 0.01 | 72 | 1019.6 |
| 20260831221505 | 69 | 271 | 0.0 | 0.0 | 0.00 | 0.12 | 0.00 | 70 | 1019.5 |
| 20260831221342 | 69 | 271 | 0.0 | 0.0 | 0.00 | 0.12 | 0.01 | 71 | 1019.7 |
| 20260831220842 | 69 | 271 | 0.0 | 0.0 | 0.00 | 0.12 | 0.01 | 70 | 1019.7 |
| 20260831220341 | 70 | 271 | 0.0 | 0.0 | 0.00 | 0.12 | 0.01 | 72 | 1019.6 |
| 20260831220116 | 70 | 271 | 0.0 | 0.0 | 0.00 | 0.12 | 0.00 | 68 | 1019.3 |
| 20260831215843 | 70 | 271 | 0.0 | 0.0 | 0.00 | 0.12 | 0.01 | 70 | 1019.4 |
| 20260831215341 | 71 | 271 | 0.0 | 0.0 | 0.00 | 0.12 | 0.01 | 70 | 1019.4 |
| 20260831214845 | 72 | 271 | 0.0 | 0.0 | 0.00 | 0.12 | 0.01 | 65 | 1019.3 |
| 20260831214342 | 73 | 271 | 0.0 | 0.0 | 0.00 | 0.12 | 0.01 | 65 | 1019.3 |
| 20260831213843 | 75 | 271 | 0.0 | 0.0 | 0.00 | 0.12 | 0.01 | 61 | 1019.4 |
| 20260831213341 | 76 | 271 | 0.0 | 1.0 | 0.00 | 0.12 | 0.01 | 57 | 1019.5 |
| 20260831213052 | 77 | 271 | 0.0 | 1.0 | 0.00 | 0.12 | 0.00 | 57 | 1019.2 |
| 20260831212842 | 78 | 271 | 0.0 | 1.0 | 0.00 | 0.12 | 0.01 | 55 | 1019.5 |
| 20260831212342 | 78 | 271 | 0.0 | 1.0 | 0.00 | 0.12 | 0.01 | 50 | 1019.4 |
| 20260831211839 | 77 | 271 | 0.0 | 2.0 | 0.00 | 0.12 | 0.01 | 53 | 1019.4 |
| 20260831211613 | 76 | 271 | 0.0 | 2.0 | 0.00 | 0.12 | 0.00 | 51 | 1019.1 |
| 20260831210339 | 77 | 271 | 0.0 | 2.0 | 0.00 | 0.12 | 0.01 | 41 | 1019.3 |
| 20260831210049 | 76 | 271 | 0.0 | 2.0 | 0.00 | 0.12 | 0.00 | 49 | 1019.2 |
| 20260831205839 | 77 | 271 | 0.0 | 2.0 | 0.00 | 0.12 | 0.01 | 49 | 1019.4 |
| 20260831205340 | 78 | 271 | 0.0 | 2.0 | 0.00 | 0.12 | 0.01 | 42 | 1019.4 |
| 20260831204640 | 77 | 271 | 0.0 | 2.0 | 0.00 | 0.12 | 0.00 | 42 | 1019.4 |
| 20260831204339 | 78 | 271 | 0.0 | 2.0 | 0.00 | 0.12 | 0.01 | 37 | 1019.6 |
| 20260831203334 | 77 | 271 | 0.0 | 0.0 | 0.00 | 0.12 | 0.01 | 49 | 1019.7 |
| 20260831203036 | 76 | 271 | 0.0 | 0.0 | 0.00 | 0.12 | 0.00 | 42 | 1019.4 |
| 20260831202839 | 77 | 271 | 0.0 | 0.0 | 0.00 | 0.12 | 0.01 | 48 | 1019.6 |
| 20260831201634 | 76 | 271 | 0.0 | 0.0 | 0.00 | 0.12 | 0.00 | 40 | 1019.7 |
| 20260831201336 | 76 | 271 | 0.0 | 0.0 | 0.00 | 0.12 | 0.01 | 46 | 1019.8 |
| 20260831200039 | 77 | 271 | 0.0 | 1.0 | 0.00 | 0.12 | 0.00 | 50 | 1019.5 |
| 20260831195830 | 77 | 271 | 0.0 | 1.0 | 0.00 | 0.12 | 0.01 | 52 | 1019.7 |
| 20260831195329 | 77 | 271 | 0.0 | 1.0 | 0.00 | 0.12 | 0.01 | 49 | 1019.6 |
| 20260831194830 | 77 | 271 | 0.0 | 1.0 | 0.00 | 0.12 | 0.01 | 49 | 1019.6 |
| 20260831194637 | 76 | 271 | 0.0 | 1.0 | 0.00 | 0.12 | 0.00 | 54 | 1019.5 |
| 20260831194330 | 77 | 271 | 0.0 | 1.0 | 0.00 | 0.12 | 0.01 | 52 | 1019.7 |
| 20260831193830 | 78 | 271 | 0.0 | 1.0 | 0.00 | 0.12 | 0.01 | 46 | 1019.8 |
| 20260831193329 | 79 | 271 | 0.0 | 1.0 | 0.00 | 0.12 | 0.01 | 43 | 1019.9 |
| 20260831193037 | 78 | 271 | 0.0 | 1.0 | 0.00 | 0.12 | 0.00 | 36 | 1019.7 |
| 20260831192830 | 78 | 271 | 0.0 | 1.0 | 0.00 | 0.12 | 0.01 | 43 | 1019.9 |
| 20260831192328 | 77 | 271 | 1.0 | 4.0 | 0.00 | 0.12 | 0.01 | 43 | 1020.0 |
| 20260831191830 | 76 | 271 | 1.0 | 4.0 | 0.00 | 0.12 | 0.01 | 40 | 1020.1 |
| 20260831191633 | 76 | 271 | 2.0 | 4.0 | 0.00 | 0.12 | 0.00 | 38 | 1019.9 |
| 20260831191326 | 77 | 271 | 0.0 | 1.0 | 0.00 | 0.12 | 0.01 | 39 | 1020.1 |
| 20260831190325 | 78 | 271 | 0.0 | 1.0 | 0.00 | 0.12 | 0.01 | 52 | 1020.1 |
| 20260831190025 | 77 | 271 | 0.0 | 1.0 | 0.00 | 0.12 | 0.00 | 51 | 1020.0 |
| 20260831185828 | 77 | 271 | 0.0 | 1.0 | 0.00 | 0.12 | 0.01 | 54 | 1020.1 |
| 20260831184826 | 77 | 271 | 0.0 | 1.0 | 0.00 | 0.12 | 0.01 | 43 | 1020.2 |
| 20260831184635 | 77 | 271 | 0.0 | 1.0 | 0.00 | 0.12 | 0.00 | 47 | 1020.1 |
| 20260831184323 | 77 | 271 | 0.0 | 1.0 | 0.00 | 0.12 | 0.01 | 42 | 1020.1 |
| 20260831183322 | 77 | 271 | 0.0 | 3.0 | 0.00 | 0.12 | 0.01 | 49 | 1020.3 |
| 20260831183015 | 76 | 271 | 0.0 | 3.0 | 0.00 | 0.12 | 0.00 | 44 | 1020.3 |
| 20260831182822 | 77 | 271 | 0.0 | 3.0 | 0.00 | 0.12 | 0.01 | 50 | 1020.4 |
| 20260831182320 | 76 | 271 | 0.0 | 2.0 | 0.00 | 0.12 | 0.01 | 46 | 1020.4 |
| 20260831181818 | 77 | 271 | 0.0 | 2.0 | 0.00 | 0.12 | 0.01 | 48 | 1020.5 |
| 20260831181612 | 76 | 271 | 0.0 | 2.0 | 0.00 | 0.12 | 0.00 | 42 | 1020.4 |
| 20260831181320 | 77 | 271 | 0.0 | 1.0 | 0.00 | 0.12 | 0.01 | 46 | 1020.5 |
| 20260831180816 | 77 | 271 | 0.0 | 1.0 | 0.00 | 0.12 | 0.01 | 47 | 1020.5 |
| 20260831180011 | 75 | 271 | 0.0 | 2.0 | 0.00 | 0.12 | 0.00 | 51 | 1020.5 |
| 20260831175817 | 76 | 271 | 0.0 | 2.0 | 0.00 | 0.12 | 0.01 | 48 | 1020.6 |
| 20260831175314 | 75 | 271 | 0.0 | 2.0 | 0.00 | 0.12 | 0.01 | 43 | 1020.5 |
| 20260831174815 | 74 | 271 | 0.0 | 1.0 | 0.00 | 0.12 | 0.01 | 47 | 1020.5 |
| 20260831174613 | 73 | 271 | 0.0 | 1.0 | 0.00 | 0.12 | 0.00 | 50 | 1020.5 |
| 20260831174316 | 74 | 271 | 0.0 | 1.0 | 0.00 | 0.12 | 0.01 | 53 | 1020.6 |
| 20260831173814 | 75 | 271 | 0.0 | 2.0 | 0.00 | 0.12 | 0.01 | 55 | 1020.7 |
| 20260831173316 | 75 | 271 | 0.0 | 2.0 | 0.00 | 0.12 | 0.01 | 42 | 1020.8 |
| 20260831173009 | 75 | 271 | 0.0 | 4.0 | 0.00 | 0.12 | 0.00 | 55 | 1020.8 |
| 20260831172812 | 76 | 271 | 0.0 | 4.0 | 0.00 | 0.12 | 0.01 | 52 | 1020.8 |
| 20260831172310 | 76 | 271 | 0.0 | 4.0 | 0.00 | 0.12 | 0.01 | 43 | 1020.9 |
| 20260831171812 | 76 | 271 | 0.0 | 1.0 | 0.00 | 0.12 | 0.01 | 52 | 1020.9 |
| 20260831171613 | 75 | 271 | 0.0 | 1.0 | 0.00 | 0.12 | 0.00 | 50 | 1020.9 |
| 20260831171311 | 75 | 271 | 0.0 | 1.0 | 0.00 | 0.12 | 0.01 | 50 | 1021.1 |
| 20260831170812 | 74 | 271 | 0.0 | 2.0 | 0.00 | 0.12 | 0.01 | 55 | 1021.1 |
| 20260831170310 | 74 | 271 | 0.0 | 2.0 | 0.00 | 0.12 | 0.01 | 48 | 1021.1 |
| 20260831170009 | 73 | 271 | 0.0 | 0.0 | 0.00 | 0.12 | 0.00 | 54 | 1021.0 |
| 20260831165811 | 73 | 271 | 0.0 | 0.0 | 0.00 | 0.12 | 0.01 | 54 | 1021.0 |
| 20260831165312 | 73 | 271 | 0.0 | 1.0 | 0.00 | 0.12 | 0.01 | 56 | 1020.9 |
| 20260831164603 | 72 | 271 | 0.0 | 2.0 | 0.00 | 0.12 | 0.00 | 59 | 1021.0 |
| 20260831164301 | 73 | 271 | 0.0 | 1.0 | 0.00 | 0.12 | 0.01 | 55 | 1021.1 |
| 20260831163801 | 72 | 271 | 0.0 | 1.0 | 0.00 | 0.12 | 0.01 | 54 | 1021.2 |
| 20260831163300 | 72 | 271 | 0.0 | 2.0 | 0.00 | 0.12 | 0.01 | 58 | 1021.2 |
| 20260831163003 | 71 | 271 | 0.0 | 2.0 | 0.00 | 0.12 | 0.00 | 52 | 1021.2 |
| 20260831162806 | 72 | 271 | 0.0 | 2.0 | 0.00 | 0.12 | 0.01 | 51 | 1021.2 |
| 20260831162305 | 73 | 271 | 0.0 | 1.0 | 0.00 | 0.12 | 0.01 | 58 | 1021.4 |
| 20260831161802 | 72 | 271 | 0.0 | 1.0 | 0.00 | 0.12 | 0.01 | 59 | 1021.6 |
| 20260831161556 | 72 | 271 | 0.0 | 1.0 | 0.00 | 0.12 | 0.00 | 59 | 1021.7 |
| 20260831161303 | 72 | 271 | 0.0 | 1.0 | 0.00 | 0.12 | 0.01 | 59 | 1021.8 |
| 20260831160802 | 71 | 271 | 0.0 | 1.0 | 0.00 | 0.12 | 0.01 | 53 | 1021.8 |
| 20260831160302 | 70 | 271 | 0.0 | 2.0 | 0.00 | 0.12 | 0.01 | 67 | 1021.9 |
| 20260831160145 | 69 | 271 | 0.0 | 2.0 | 0.00 | 0.12 | 0.00 | 63 | 1021.7 |
| 20260831155802 | 69 | 271 | 0.0 | 2.0 | 0.00 | 0.12 | 0.01 | 70 | 1021.9 |
| 20260831155301 | 69 | 271 | 0.0 | 1.0 | 0.00 | 0.12 | 0.01 | 67 | 1021.9 |
| 20260831154803 | 69 | 271 | 0.0 | 2.0 | 0.00 | 0.12 | 0.01 | 68 | 1021.9 |
| 20260831154545 | 68 | 271 | 0.0 | 2.0 | 0.00 | 0.12 | 0.00 | 71 | 1021.9 |
| 20260831154301 | 67 | 271 | 1.0 | 2.0 | 0.00 | 0.12 | 0.01 | 71 | 1022.0 |
| 20260831153801 | 67 | 271 | 1.0 | 2.0 | 0.00 | 0.12 | 0.01 | 71 | 1022.0 |
| 20260831153302 | 68 | 271 | 0.0 | 2.0 | 0.00 | 0.12 | 0.01 | 75 | 1022.1 |
| 20260831153140 | 67 | 271 | 0.0 | 2.0 | 0.00 | 0.12 | 0.00 | 68 | 1021.9 |
| 20260831152801 | 68 | 271 | 0.0 | 2.0 | 0.00 | 0.12 | 0.01 | 76 | 1022.0 |
| 20260831152305 | 67 | 271 | 0.0 | 2.0 | 0.00 | 0.12 | 0.01 | 76 | 1022.1 |
| 20260831151803 | 67 | 271 | 0.0 | 3.0 | 0.00 | 0.12 | 0.01 | 76 | 1022.1 |
| 20260831151554 | 67 | 271 | 0.0 | 3.0 | 0.00 | 0.12 | 0.00 | 74 | 1022.1 |
| 20260831151302 | 67 | 271 | 1.0 | 3.0 | 0.00 | 0.12 | 0.01 | 72 | 1022.2 |
| 20260831150803 | 66 | 271 | 0.0 | 2.0 | 0.00 | 0.12 | 0.01 | 75 | 1022.2 |
| 20260831150302 | 66 | 271 | 0.0 | 1.0 | 0.00 | 0.12 | 0.01 | 80 | 1022.2 |
| 20260831150135 | 65 | 271 | 0.0 | 1.0 | 0.00 | 0.12 | 0.00 | 81 | 1022.1 |
| 20260831145801 | 66 | 271 | 0.0 | 1.0 | 0.00 | 0.12 | 0.01 | 79 | 1022.3 |
| 20260831144802 | 65 | 271 | 0.0 | 2.0 | 0.00 | 0.12 | 0.01 | 84 | 1022.1 |
| 20260831144547 | 64 | 271 | 0.0 | 2.0 | 0.00 | 0.12 | 0.00 | 85 | 1022.0 |
| 20260831144302 | 64 | 271 | 0.0 | 2.0 | 0.00 | 0.12 | 0.01 | 85 | 1022.1 |
| 20260831143301 | 64 | 271 | 0.0 | 2.0 | 0.00 | 0.12 | 0.01 | 86 | 1022.3 |
| 20260831143129 | 63 | 271 | 0.0 | 2.0 | 0.00 | 0.12 | 0.00 | 86 | 1022.3 |
| 20260831142801 | 63 | 271 | 0.0 | 2.0 | 0.00 | 0.12 | 0.01 | 86 | 1022.3 |
| 20260831142300 | 62 | 271 | 0.0 | 2.0 | 0.00 | 0.12 | 0.01 | 87 | 1022.3 |
| 20260831141801 | 62 | 271 | 0.0 | 0.0 | 0.00 | 0.12 | 0.01 | 88 | 1022.3 |
| 20260831141520 | 61 | 271 | 0.0 | 0.0 | 0.00 | 0.12 | 0.00 | 90 | 1022.4 |
| 20260831140802 | 60 | 271 | 0.0 | 0.0 | 0.00 | 0.12 | 0.01 | 90 | 1022.4 |
| 20260831140301 | 60 | 271 | 0.0 | 0.0 | 0.00 | 0.12 | 0.01 | 90 | 1022.4 |
| 20260831140104 | 60 | 271 | 0.0 | 0.0 | 0.00 | 0.12 | 0.00 | 89 | 1022.3 |
| 20260831135802 | 60 | 271 | 0.0 | 0.0 | 0.00 | 0.12 | 0.01 | 90 | 1022.4 |
| 20260831135300 | 60 | 271 | 0.0 | 0.0 | 0.00 | 0.12 | 0.01 | 90 | 1022.4 |
| 20260831134503 | 59 | 271 | 0.0 | 0.0 | 0.00 | 0.12 | 0.00 | 90 | 1022.3 |
| 20260831134301 | 59 | 271 | 0.0 | 0.0 | 0.00 | 0.12 | 0.01 | 90 | 1022.4 |
| 20260831133801 | 59 | 271 | 0.0 | 0.0 | 0.00 | 0.12 | 0.01 | 92 | 1022.5 |
| 20260831133300 | 58 | 271 | 0.0 | 0.0 | 0.00 | 0.12 | 0.01 | 91 | 1022.4 |
| 20260831133022 | 57 | 271 | 0.0 | 0.0 | 0.00 | 0.12 | 0.00 | 91 | 1022.3 |
| 20260831132255 | 58 | 271 | 0.0 | 0.0 | 0.00 | 0.12 | 0.01 | 92 | 1022.4 |
| 20260831131502 | 57 | 271 | 0.0 | 0.0 | 0.00 | 0.12 | 0.00 | 92 | 1022.1 |
| 20260831131243 | 57 | 271 | 0.0 | 0.0 | 0.00 | 0.12 | 0.01 | 93 | 1022.2 |
| 20260831130739 | 56 | 271 | 0.0 | 0.0 | 0.00 | 0.12 | 0.01 | 93 | 1022.2 |
| 20260831130112 | 55 | 271 | 0.0 | 0.0 | 0.00 | 0.12 | 0.00 | 94 | 1022.1 |
| 20260831125730 | 55 | 271 | 0.0 | 0.0 | 0.00 | 0.12 | 0.01 | 95 | 1022.2 |
| 20260831124731 | 54 | 271 | 0.0 | 0.0 | 0.00 | 0.12 | 0.01 | 98 | 1022.1 |
| 20260831124504 | 53 | 271 | 0.0 | 0.0 | 0.00 | 0.12 | 0.00 | 98 | 1022.0 |
| 20260831124230 | 54 | 271 | 0.0 | 0.0 | 0.00 | 0.12 | 0.01 | 98 | 1022.1 |
| 20260831123730 | 53 | 271 | 0.0 | 0.0 | 0.00 | 0.12 | 0.01 | 98 | 1022.1 |
| 20260831123231 | 52 | 271 | 0.0 | 0.0 | 0.00 | 0.12 | 0.01 | 98 | 1022.0 |
| 20260831123103 | 52 | 271 | 0.0 | 0.0 | 0.00 | 0.12 | 0.00 | 98 | 1021.9 |
| 20260831122730 | 52 | 271 | 0.0 | 0.0 | 0.00 | 0.12 | 0.01 | 98 | 1021.9 |
| 20260831122230 | 52 | 271 | 0.0 | 0.0 | 0.00 | 0.12 | 0.01 | 98 | 1021.9 |
| 20260831121729 | 51 | 271 | 0.0 | 0.0 | 0.00 | 0.12 | 0.01 | 98 | 1021.9 |
| 20260831121502 | 51 | 271 | 0.0 | 0.0 | 0.00 | 0.12 | 0.00 | 98 | 1021.7 |
| 20260831121230 | 51 | 271 | 0.0 | 0.0 | 0.00 | 0.12 | 0.01 | 98 | 1021.8 |
| 20260831120100 | 50 | 271 | 0.0 | 0.0 | 0.00 | 0.12 | 0.00 | 98 | 1021.7 |
| 20260831115729 | 50 | 271 | 0.0 | 0.0 | 0.00 | 0.12 | 0.01 | 98 | 1021.8 |
| 20260831114639 | 49 | 271 | 0.0 | 0.0 | 0.00 | 0.12 | 0.00 | 98 | 1021.8 |
| 20260831114213 | 49 | 271 | 0.0 | 0.0 | 0.00 | 0.12 | 0.01 | 98 | 1021.9 |
| 20260831113707 | 49 | 271 | 0.0 | 0.0 | 0.00 | 0.12 | 0.01 | 98 | 1021.8 |
| 20260831113201 | 49 | 271 | 0.0 | 0.0 | 0.00 | 0.12 | 0.01 | 98 | 1021.6 |
| 20260831113038 | 48 | 271 | 0.0 | 0.0 | 0.00 | 0.12 | 0.00 | 97 | 1021.7 |
| 20260831112703 | 49 | 271 | 0.0 | 0.0 | 0.00 | 0.12 | 0.01 | 97 | 1021.6 |
| 20260831112201 | 49 | 271 | 0.0 | 0.0 | 0.00 | 0.12 | 0.01 | 97 | 1021.6 |
| 20260831111702 | 49 | 271 | 0.0 | 0.0 | 0.00 | 0.12 | 0.01 | 98 | 1021.6 |
| 20260831111633 | 49 | 271 | 0.0 | 0.0 | 0.00 | 0.12 | 0.00 | 98 | 1021.6 |
| 20260831111202 | 49 | 271 | 0.0 | 0.0 | 0.00 | 0.12 | 0.01 | 98 | 1021.5 |
| 20260831110701 | 49 | 271 | 0.0 | 0.0 | 0.00 | 0.12 | 0.01 | 97 | 1021.5 |
| 20260831110202 | 49 | 271 | 0.0 | 0.0 | 0.00 | 0.12 | 0.01 | 97 | 1021.5 |
| 20260831110023 | 49 | 271 | 0.0 | 0.0 | 0.00 | 0.12 | 0.12 | 97 | 1021.5 |
| 20260831105701 | 49 | 271 | 0.0 | 0.0 | 0.00 | 0.12 | 0.01 | 97 | 1021.4 |
| 20260831104702 | 49 | 271 | 0.0 | 0.0 | 0.00 | 0.12 | 0.01 | 98 | 1021.2 |
| 20260831104617 | 49 | 271 | 0.0 | 0.0 | 0.00 | 0.12 | 0.12 | 98 | 1021.2 |
| 20260831104201 | 49 | 271 | 0.0 | 0.0 | 0.00 | 0.12 | 0.01 | 97 | 1021.2 |
| 20260831103702 | 49 | 271 | 0.0 | 0.0 | 0.00 | 0.12 | 0.01 | 97 | 1021.2 |
| 20260831103201 | 49 | 271 | 0.0 | 0.0 | 0.00 | 0.12 | 0.01 | 97 | 1021.1 |
| 20260831103005 | 48 | 271 | 0.0 | 0.0 | 0.00 | 0.12 | 0.12 | 97 | 1021.0 |
| 20260831102702 | 49 | 271 | 0.0 | 0.0 | 0.00 | 0.12 | 0.01 | 97 | 1021.1 |
| 20260831102201 | 49 | 271 | 0.0 | 0.0 | 0.00 | 0.12 | 0.01 | 97 | 1020.9 |
| 20260831101701 | 49 | 271 | 0.0 | 0.0 | 0.00 | 0.12 | 0.01 | 97 | 1020.8 |
| 20260831101605 | 49 | 271 | 0.0 | 0.0 | 0.00 | 0.12 | 0.12 | 97 | 1020.9 |
| 20260831100702 | 50 | 271 | 0.0 | 0.0 | 0.00 | 0.12 | 0.01 | 96 | 1020.7 |
| 20260831100150 | 50 | 271 | 0.0 | 0.0 | 0.00 | 0.12 | 0.12 | 97 | 1020.6 |
| 20260831095702 | 51 | 271 | 0.0 | 0.0 | 0.00 | 0.12 | 0.01 | 97 | 1020.7 |
| 20260831094702 | 51 | 271 | 0.0 | 0.0 | 0.00 | 0.12 | 0.01 | 97 | 1020.6 |
| 20260831094544 | 51 | 271 | 0.0 | 0.0 | 0.00 | 0.12 | 0.12 | 97 | 1020.7 |
| 20260831094202 | 51 | 271 | 0.0 | 0.0 | 0.00 | 0.12 | 0.01 | 98 | 1020.6 |
| 20260831093702 | 51 | 271 | 0.0 | 0.0 | 0.00 | 0.12 | 0.01 | 98 | 1020.6 |
| 20260831093201 | 51 | 271 | 0.0 | 0.0 | 0.00 | 0.12 | 0.01 | 98 | 1020.6 |
| 20260831093143 | 51 | 271 | 0.0 | 0.0 | 0.00 | 0.12 | 0.12 | 98 | 1020.7 |
| 20260831092701 | 51 | 271 | 0.0 | 0.0 | 0.00 | 0.12 | 0.01 | 97 | 1020.6 |
| 20260831092206 | 51 | 271 | 0.0 | 0.0 | 0.00 | 0.12 | 0.01 | 97 | 1020.6 |
| 20260831091702 | 51 | 271 | 0.0 | 0.0 | 0.00 | 0.12 | 0.01 | 97 | 1020.5 |
| 20260831091550 | 51 | 271 | 0.0 | 0.0 | 0.00 | 0.12 | 0.12 | 97 | 1020.6 |
| 20260831090655 | 51 | 271 | 0.0 | 0.0 | 0.01 | 0.12 | 0.01 | 97 | 1020.5 |
| 20260831090145 | 51 | 271 | 0.0 | 0.0 | 0.01 | 0.12 | 0.01 | 97 | 1020.5 |
| 20260831090131 | 51 | 271 | 0.0 | 0.0 | 0.01 | 0.12 | 0.12 | 97 | 1020.5 |
| 20260831085135 | 52 | 271 | 0.0 | 0.0 | 0.01 | 0.12 | 0.01 | 97 | 1020.3 |
| 20260831084629 | 52 | 271 | 0.0 | 0.0 | 0.01 | 0.12 | 0.01 | 98 | 1020.4 |
| 20260831084540 | 51 | 271 | 0.0 | 0.0 | 0.01 | 0.12 | 0.12 | 98 | 1020.4 |
| 20260831083630 | 52 | 271 | 0.0 | 0.0 | 0.01 | 0.12 | 0.01 | 98 | 1020.2 |
| 20260831083133 | 52 | 271 | 0.0 | 0.0 | 0.01 | 0.12 | 0.01 | 98 | 1020.2 |
| 20260831083130 | 52 | 271 | 0.0 | 0.0 | 0.01 | 0.12 | 0.12 | 98 | 1020.2 |
| 20260831082631 | 52 | 271 | 0.0 | 0.0 | 0.01 | 0.12 | 0.01 | 98 | 1020.1 |
| 20260831082130 | 52 | 271 | 0.0 | 0.0 | 0.01 | 0.12 | 0.01 | 98 | 1020.1 |
| 20260831081630 | 52 | 271 | 0.0 | 0.0 | 0.01 | 0.12 | 0.01 | 98 | 1020.1 |
| 20260831081522 | 51 | 271 | 0.0 | 0.0 | 0.01 | 0.12 | 0.12 | 98 | 1020.1 |
| 20260831081129 | 51 | 271 | 0.0 | 0.0 | 0.01 | 0.12 | 0.01 | 98 | 1020.2 |
| 20260831080629 | 51 | 271 | 0.0 | 0.0 | 0.00 | 0.11 | 0.00 | 98 | 1020.1 |
| 20260831080130 | 50 | 271 | 0.0 | 0.0 | 0.00 | 0.11 | 0.00 | 98 | 1020.0 |
| 20260831075631 | 50 | 271 | 0.0 | 0.0 | 0.00 | 0.11 | 0.00 | 98 | 1020.1 |
| 20260831075130 | 50 | 271 | 0.0 | 0.0 | 0.00 | 0.11 | 0.00 | 97 | 1020.1 |
| 20260831074630 | 50 | 271 | 0.0 | 0.0 | 0.00 | 0.11 | 0.00 | 97 | 1020.1 |
| 20260831074506 | 49 | 271 | 0.0 | 0.0 | 0.00 | 0.11 | 0.11 | 97 | 1020.0 |
| 20260831074129 | 49 | 271 | 0.0 | 0.0 | 0.00 | 0.11 | 0.00 | 97 | 1020.0 |
| 20260831073200 | 49 | 271 | 0.0 | 0.0 | 0.00 | 0.11 | 0.11 | 97 | 1019.9 |
| 20260831073129 | 49 | 271 | 0.0 | 0.0 | 0.00 | 0.11 | 0.00 | 97 | 1019.9 |
| 20260831072129 | 49 | 271 | 0.0 | 0.0 | 0.00 | 0.11 | 0.00 | 97 | 1019.8 |
| 20260831071630 | 50 | 271 | 0.0 | 0.0 | 0.00 | 0.11 | 0.00 | 97 | 1019.8 |
| 20260831071502 | 49 | 271 | 0.0 | 0.0 | 0.00 | 0.11 | 0.11 | 97 | 1019.7 |
| 20260831071129 | 50 | 271 | 0.0 | 0.0 | 0.00 | 0.11 | 0.00 | 97 | 1019.7 |
| 20260831070627 | 50 | 271 | 0.0 | 0.0 | 0.00 | 0.11 | 0.00 | 97 | 1019.8 |
| 20260831070125 | 50 | 271 | 0.0 | 0.0 | 0.00 | 0.11 | 0.00 | 97 | 1019.8 |
| 20260831070057 | 49 | 271 | 0.0 | 0.0 | 0.00 | 0.11 | 0.11 | 97 | 1019.7 |
| 20260831065623 | 50 | 271 | 0.0 | 0.0 | 0.00 | 0.11 | 0.00 | 96 | 1019.8 |
| 20260831065121 | 50 | 271 | 0.0 | 0.0 | 0.00 | 0.11 | 0.00 | 96 | 1019.7 |
| 20260831064116 | 51 | 271 | 0.0 | 0.0 | 0.00 | 0.11 | 0.00 | 96 | 1019.8 |
| 20260831063615 | 51 | 271 | 0.0 | 0.0 | 0.00 | 0.11 | 0.00 | 96 | 1019.9 |
| 20260831063044 | 50 | 271 | 0.0 | 0.0 | 0.00 | 0.11 | 0.11 | 96 | 1019.9 |
| 20260831062613 | 51 | 271 | 0.0 | 0.0 | 0.00 | 0.11 | 0.00 | 96 | 1019.9 |
| 20260831062109 | 51 | 271 | 0.0 | 0.0 | 0.00 | 0.11 | 0.00 | 96 | 1020.0 |
| 20260831061645 | 51 | 271 | 0.0 | 0.0 | 0.00 | 0.11 | 0.11 | 96 | 1019.9 |
| 20260831061609 | 51 | 271 | 0.0 | 0.0 | 0.00 | 0.11 | 0.00 | 96 | 1020.0 |
| 20260831061109 | 52 | 271 | 0.0 | 0.0 | 0.00 | 0.11 | 0.00 | 96 | 1020.0 |
| 20260831060608 | 52 | 271 | 0.0 | 0.0 | 0.00 | 0.11 | 0.00 | 96 | 1019.9 |
| 20260831060109 | 53 | 271 | 0.0 | 0.0 | 0.00 | 0.11 | 0.00 | 96 | 1019.8 |
| 20260831060057 | 53 | 271 | 0.0 | 0.0 | 0.00 | 0.11 | 0.11 | 97 | 1019.8 |
| 20260831055109 | 53 | 271 | 0.0 | 0.0 | 0.00 | 0.11 | 0.00 | 97 | 1019.8 |
| 20260831054640 | 53 | 271 | 0.0 | 0.0 | 0.00 | 0.11 | 0.11 | 97 | 1019.8 |
| 20260831054609 | 53 | 271 | 0.0 | 0.0 | 0.00 | 0.11 | 0.00 | 97 | 1019.9 |
| 20260831053609 | 54 | 271 | 0.0 | 0.0 | 0.00 | 0.11 | 0.00 | 97 | 1019.8 |
| 20260831053109 | 54 | 271 | 0.0 | 0.0 | 0.00 | 0.11 | 0.00 | 97 | 1019.8 |
| 20260831053038 | 53 | 271 | 0.0 | 0.0 | 0.00 | 0.11 | 0.11 | 97 | 1019.7 |
| 20260831052109 | 54 | 271 | 0.0 | 0.0 | 0.00 | 0.11 | 0.00 | 97 | 1019.8 |
| 20260831051637 | 53 | 271 | 0.0 | 0.0 | 0.00 | 0.11 | 0.11 | 97 | 1019.8 |
| 20260831051609 | 54 | 271 | 0.0 | 0.0 | 0.00 | 0.11 | 0.00 | 97 | 1019.8 |
| 20260831051108 | 54 | 271 | 0.0 | 0.0 | 0.00 | 0.11 | 0.00 | 97 | 1019.7 |
| 20260831050609 | 54 | 271 | 0.0 | 0.0 | 0.00 | 0.11 | 0.00 | 97 | 1019.8 |
| 20260831050103 | 54 | 271 | 0.0 | 0.0 | 0.00 | 0.11 | 0.00 | 97 | 1019.8 |
| 20260831050042 | 53 | 271 | 0.0 | 0.0 | 0.00 | 0.11 | 0.11 | 97 | 1019.7 |
| 20260831045604 | 54 | 271 | 0.0 | 0.0 | 0.00 | 0.11 | 0.00 | 97 | 1019.7 |
| 20260831045103 | 54 | 271 | 0.0 | 0.0 | 0.00 | 0.11 | 0.00 | 97 | 1019.7 |
| 20260831044632 | 54 | 271 | 0.0 | 0.0 | 0.00 | 0.11 | 0.11 | 97 | 1019.6 |
| 20260831044604 | 54 | 271 | 0.0 | 0.0 | 0.00 | 0.11 | 0.00 | 97 | 1019.7 |
| 20260831044103 | 54 | 271 | 0.0 | 0.0 | 0.00 | 0.11 | 0.00 | 97 | 1019.6 |
| 20260831043605 | 54 | 271 | 0.0 | 0.0 | 0.00 | 0.11 | 0.00 | 97 | 1019.6 |
| 20260831043103 | 54 | 271 | 0.0 | 0.0 | 0.00 | 0.11 | 0.00 | 97 | 1019.5 |
| 20260831043033 | 54 | 271 | 0.0 | 0.0 | 0.00 | 0.11 | 0.11 | 97 | 1019.4 |
| 20260831042603 | 54 | 271 | 0.0 | 0.0 | 0.00 | 0.11 | 0.00 | 97 | 1019.5 |
| 20260831041629 | 54 | 271 | 0.0 | 0.0 | 0.00 | 0.11 | 0.11 | 96 | 1019.2 |
| 20260831041604 | 54 | 271 | 0.0 | 0.0 | 0.00 | 0.11 | 0.00 | 96 | 1019.3 |
| 20260831041102 | 54 | 271 | 0.0 | 0.0 | 0.00 | 0.11 | 0.00 | 96 | 1019.2 |
| 20260831040039 | 54 | 271 | 0.0 | 0.0 | 0.00 | 0.11 | 0.11 | 96 | 1019.1 |
| 20260831035601 | 55 | 271 | 0.0 | 0.0 | 0.00 | 0.11 | 0.11 | 96 | 1019.2 |
| 20260831035058 | 55 | 271 | 0.0 | 0.0 | 0.00 | 0.11 | 0.11 | 96 | 1019.2 |
| 20260831034607 | 54 | 271 | 0.0 | 0.0 | 0.00 | 0.11 | 0.11 | 96 | 1019.1 |
| 20260831034556 | 55 | 271 | 0.0 | 0.0 | 0.00 | 0.11 | 0.11 | 96 | 1019.1 |
| 20260831034053 | 55 | 271 | 0.0 | 0.0 | 0.00 | 0.11 | 0.11 | 96 | 1019.2 |
| 20260831033554 | 55 | 271 | 0.0 | 0.0 | 0.00 | 0.11 | 0.11 | 96 | 1019.0 |
| 20260831033053 | 55 | 271 | 0.0 | 0.0 | 0.00 | 0.11 | 0.11 | 96 | 1019.1 |
| 20260831033006 | 55 | 271 | 0.0 | 0.0 | 0.00 | 0.11 | 0.11 | 96 | 1019.0 |
| 20260831032553 | 55 | 271 | 0.0 | 0.0 | 0.00 | 0.11 | 0.11 | 96 | 1019.0 |
| 20260831032049 | 55 | 271 | 0.0 | 0.0 | 0.00 | 0.11 | 0.11 | 96 | 1019.1 |
| 20260831031605 | 55 | 271 | 0.0 | 0.0 | 0.00 | 0.11 | 0.11 | 96 | 1019.0 |
| 20260831031549 | 55 | 271 | 0.0 | 0.0 | 0.00 | 0.11 | 0.11 | 96 | 1019.0 |
| 20260831031046 | 55 | 271 | 0.0 | 0.0 | 0.00 | 0.11 | 0.11 | 96 | 1019.1 |
| 20260831030540 | 56 | 271 | 0.0 | 0.0 | 0.00 | 0.11 | 0.11 | 96 | 1019.0 |
| 20260831030039 | 56 | 271 | 0.0 | 0.0 | 0.00 | 0.11 | 0.11 | 96 | 1019.0 |
| 20260831025540 | 56 | 271 | 0.0 | 0.0 | 0.00 | 0.11 | 0.11 | 96 | 1019.0 |
| 20260831024549 | 56 | 271 | 0.0 | 0.0 | 0.01 | 0.11 | 0.11 | 95 | 1019.0 |
| 20260831024541 | 56 | 271 | 0.0 | 0.0 | 0.01 | 0.11 | 0.11 | 95 | 1019.1 |
| 20260831024040 | 57 | 271 | 0.0 | 0.0 | 0.01 | 0.11 | 0.11 | 95 | 1019.0 |
| 20260831023539 | 57 | 271 | 0.0 | 0.0 | 0.01 | 0.11 | 0.11 | 95 | 1019.1 |
| 20260831023142 | 56 | 271 | 0.0 | 0.0 | 0.01 | 0.11 | 0.11 | 95 | 1019.0 |
| 20260831023039 | 57 | 271 | 0.0 | 0.0 | 0.01 | 0.11 | 0.11 | 95 | 1019.0 |
| 20260831022537 | 57 | 271 | 0.0 | 0.0 | 0.01 | 0.11 | 0.11 | 95 | 1019.2 |
| 20260831022037 | 57 | 271 | 0.0 | 0.0 | 0.01 | 0.11 | 0.11 | 95 | 1018.9 |
| 20260831021543 | 57 | 271 | 0.0 | 0.0 | 0.01 | 0.11 | 0.11 | 95 | 1018.7 |
| 20260831021537 | 57 | 271 | 0.0 | 0.0 | 0.01 | 0.11 | 0.11 | 95 | 1018.9 |
| 20260831021036 | 58 | 271 | 0.0 | 0.0 | 0.02 | 0.11 | 0.11 | 95 | 1018.8 |
| 20260831020537 | 58 | 271 | 0.0 | 0.0 | 0.02 | 0.11 | 0.11 | 95 | 1018.6 |
| 20260831020135 | 57 | 271 | 0.0 | 1.0 | 0.03 | 0.11 | 0.11 | 95 | 1018.6 |
| 20260831020037 | 58 | 271 | 0.0 | 1.0 | 0.03 | 0.11 | 0.11 | 95 | 1018.7 |
| 20260831015534 | 58 | 271 | 0.0 | 1.0 | 0.04 | 0.11 | 0.11 | 95 | 1018.6 |
| 20260831015031 | 58 | 271 | 0.0 | 0.0 | 0.04 | 0.11 | 0.11 | 95 | 1018.7 |